GLENN Weather Reports


time (UTC)temp
F
wind
direction
speed
knots
gust
knots
rain 1hr
in
rain 24hr
in
rain mn
in
humidity
%
barometer
mb
20260508224509 65 69 0.0 1.7 0.00 0.00 0.00 36 1012.8
20260508223013 65 360 0.0 1.7 0.00 0.00 0.00 36 1012.8
20260508221515 66 352 0.0 4.3 0.00 0.00 0.00 36 1012.8
20260508220100 66 34 1.7 7.8 0.00 0.00 0.00 35 1013.0
20260508214525 66 304 2.6 4.3 0.00 0.00 0.00 36 1013.2
20260508213010 66 337 2.6 7.8 0.00 0.00 0.00 39 1013.3
20260508211520 65 344 1.7 2.6 0.00 0.00 0.00 41 1013.7
20260508210021 65 9 1.7 7.8 0.00 0.00 0.00 38 1013.9
20260508204524 66 24 1.7 6.1 0.00 0.00 0.00 41 1013.9
20260508203005 64 329 1.7 5.2 0.00 0.00 0.00 42 1014.2
20260508201513 65 5 0.9 3.5 0.00 0.00 0.00 42 1014.2
20260508200015 64 38 1.7 5.2 0.00 0.00 0.00 45 1014.4
20260508194522 64 308 3.5 8.7 0.00 0.00 0.00 39 1014.5
20260508193028 64 279 4.3 8.7 0.00 0.00 0.00 40 1014.5
20260508191515 63 241 2.6 8.7 0.00 0.00 0.00 44 1014.7
20260508190016 64 323 4.3 7.8 0.00 0.00 0.00 43 1014.7
20260508184526 63 342 3.5 7.8 0.00 0.00 0.00 41 1015.0
20260508183024 63 332 3.5 9.6 0.00 0.00 0.00 42 1015.2
20260508181509 62 350 0.9 5.2 0.00 0.00 0.00 43 1015.4
20260508180012 62 18 2.6 7.8 0.00 0.00 0.00 47 1015.5
20260508174507 61 26 1.7 5.2 0.00 0.00 0.00 46 1015.8
20260508173005 60 321 3.5 7.0 0.00 0.00 0.00 46 1016.0
20260508171507 59 309 2.6 7.0 0.00 0.00 0.00 50 1016.1
20260508170013 59 323 1.7 6.1 0.00 0.00 0.00 50 1016.1
20260508164513 59 278 1.7 5.2 0.00 0.00 0.00 51 1016.2
20260508163004 58 281 1.7 5.2 0.00 0.00 0.00 54 1016.4
20260508161507 57 265 1.7 4.3 0.00 0.00 0.00 51 1016.5
20260508160010 56 281 2.6 6.1 0.00 0.00 0.00 57 1016.5
20260508154512 57 27 0.9 2.6 0.00 0.00 0.00 56 1016.6
20260508153020 56 321 0.9 2.6 0.00 0.00 0.00 58 1016.6
20260508151505 55 166 0.9 2.6 0.00 0.00 0.00 58 1016.5
20260508150009 55 9 0.0 1.7 0.00 0.00 0.00 59 1016.6
20260508144510 52 188 0.0 1.7 0.00 0.00 0.00 63 1016.6
20260508143023 52 217 0.9 1.7 0.00 0.00 0.00 64 1016.7
20260508141519 51 193 0.9 1.7 0.00 0.00 0.00 64 1016.8
20260508140015 51 232 0.9 0.9 0.00 0.00 0.00 63 1016.9
20260508134510 50 111 0.0 1.7 0.00 0.00 0.00 67 1016.8
20260508133012 47 92 1.7 3.5 0.00 0.00 0.00 70 1016.7
20260508131519 45 97 0.0 0.0 0.00 0.00 0.00 72 1016.8
20260508130024 44 102 0.0 0.0 0.00 0.00 0.00 73 1016.6
20260508124511 44 92 0.0 0.0 0.00 0.00 0.00 74 1016.6
20260508123012 43 101 0.0 0.0 0.00 0.00 0.00 75 1016.5
20260508121526 45 169 0.0 1.7 0.00 0.00 0.00 69 1016.4
20260508120022 46 103 1.7 2.6 0.00 0.00 0.00 69 1016.2
20260508114524 46 79 0.9 2.6 0.00 0.00 0.00 69 1016.2
20260508113014 46 83 0.9 1.7 0.00 0.00 0.00 69 1016.3
20260508111512 46 103 0.0 1.7 0.00 0.00 0.00 71 1016.2
20260508110018 45 115 2.6 2.6 0.00 0.04 0.00 72 1016.1
20260508104522 43 111 2.6 3.5 0.00 0.04 0.00 77 1016.1
20260508103033 43 140 0.0 1.7 0.00 0.04 0.00 76 1016.1
20260508101512 46 138 0.9 1.7 0.00 0.04 0.00 69 1016.0
20260508100023 46 88 1.7 2.6 0.00 0.04 0.00 71 1015.9
20260508094522 45 78 0.9 1.7 0.00 0.04 0.00 73 1016.1
20260508093024 45 360 0.9 1.7 0.00 0.04 0.00 72 1016.1
20260508091511 46 49 0.0 1.7 0.00 0.04 0.00 69 1016.0
20260508090013 47 63 0.0 0.0 0.00 0.04 0.00 66 1015.9
20260508084518 47 112 0.9 3.5 0.00 0.04 0.00 66 1015.9
20260508083024 47 66 0.9 1.7 0.00 0.04 0.00 66 1016.0
20260508081524 48 85 0.0 1.7 0.00 0.04 0.00 64 1016.0
20260508080013 47 127 0.0 0.9 0.00 0.04 0.00 68 1016.1
20260508074516 46 137 0.9 2.6 0.00 0.06 0.00 71 1016.0
20260508073019 46 132 0.0 1.7 0.00 0.08 0.00 71 1016.0
20260508071538 48 110 2.6 5.2 0.00 0.09 0.00 66 1015.9
20260508070008 48 17 0.0 2.6 0.00 0.09 0.00 65 1015.9
20260508064512 49 128 0.9 1.7 0.00 0.09 0.00 62 1016.0
20260508063029 50 108 0.9 2.6 0.00 0.09 0.00 61 1015.9
20260508061523 50 92 2.6 6.1 0.00 0.09 0.00 62 1015.9
20260508060033 49 84 0.9 1.7 0.00 0.09 0.00 67 1015.9
20260508054512 49 230 0.0 1.7 0.00 0.09 0.09 67 1015.9
20260508053018 51 241 0.9 5.2 0.00 0.09 0.09 62 1015.9
20260508051519 52 103 3.5 5.2 0.00 0.09 0.09 59 1015.8
20260508050025 52 94 3.5 5.2 0.00 0.09 0.09 59 1015.8
20260508044528 51 118 3.5 5.2 0.00 0.09 0.09 60 1015.9
20260508043014 52 112 2.6 5.2 0.00 0.09 0.09 59 1015.8
20260508041520 52 109 2.6 3.5 0.00 0.09 0.09 59 1015.8
20260508040023 52 114 2.6 3.5 0.00 0.09 0.09 60 1015.7
20260508034527 52 112 2.6 2.6 0.00 0.09 0.09 62 1015.6
20260508033028 52 111 2.6 3.5 0.00 0.09 0.09 61 1015.6
20260508031518 53 107 2.6 4.3 0.00 0.09 0.09 62 1015.4
20260508030006 53 137 4.3 7.8 0.00 0.09 0.09 61 1015.2
20260508024505 54 163 2.6 3.5 0.00 0.09 0.09 60 1014.9
20260508023009 57 280 1.7 3.5 0.00 0.09 0.09 49 1014.7
20260508021515 58 322 1.7 6.1 0.00 0.09 0.09 51 1014.6
20260508020020 57 9 1.7 3.5 0.00 0.09 0.09 51 1014.4
20260508014508 58 10 1.7 2.6 0.00 0.09 0.09 50 1014.3
20260508013009 60 352 2.6 7.0 0.00 0.09 0.09 50 1014.1
20260508011514 59 9 3.5 9.6 0.00 0.09 0.09 52 1014.1
20260508010030 58 340 2.6 8.7 0.00 0.09 0.09 54 1014.0
20260508004522 58 22 1.7 12.2 0.00 0.09 0.09 53 1014.1
20260508003009 58 315 5.2 10.4 0.00 0.09 0.09 51 1014.1
20260508000014 63 310 0.9 6.1 0.00 0.09 0.09 43 1013.3
20260507234520 65 19 2.6 7.0 0.00 0.09 0.09 44 1013.2
20260507233037 63 326 0.9 7.8 0.00 0.09 0.09 46 1013.2
20260507231510 65 336 2.6 7.0 0.00 0.09 0.09 41 1013.0
20260507230014 64 315 3.5 7.0 0.00 0.09 0.09 41 1013.0